Location: Wildcat Hills Observatory
(41.6350°N, 103.6812°W)
Time: 09:55:04
(UTC-06:00)

Daily predictions for brighter satellites

Satellite Brightness Start Highest point End
(mag) Time Altitude Azimuth Time Altitude Azimuth Time Altitude Azimuth
Resurs 01 Rocket 3.3 20:59:58 10° SSW 21:03:58 34° W 21:07:59 10° NNW
Cosmos 1939 Rocket 2.9 21:00:28 10° SSE 21:04:29 89° ENE 21:08:35 10° NNW
SL-16 R/B 2.6 21:00:17 10° NNW 21:05:55 65° WSW 21:11:29 10° S
KORONAS-FOTON 4.3 21:06:12 10° SSE 21:09:45 39° E 21:13:19 10° NNE
USA 186 3.7 21:09:16 10° SW 21:10:54 18° W 21:12:32 10° NW
Cosmos 1459 Rocket 4.1 21:05:42 10° N 21:11:57 63° E 21:18:03 10° SSE
ERBS 3.3 21:11:53 10° NNW 21:15:05 37° NE 21:18:15 10° ESE
GPS 2-05 Rocket1 4.1 21:13:15 10° SSW 21:15:29 19° SSE 21:17:45 10° ESE
Cosmos 1076 Rocket 3.5 21:15:12 10° S 21:19:34 80° E 21:23:56 10° N
H-2A R/B 3.4 21:17:44 10° ESE 21:22:05 26° ENE 21:26:31 10° N
Cosmos 2100 Rocket 4.1 21:17:24 10° N 21:23:46 84° E 21:30:09 10° S
H-2A ROCKET BODY 3.7 21:24:08 10° SSE 21:26:11 13° SE 21:29:18 10° ESE
Lacrosse 5 1.9 21:21:18 10° NW 21:26:24 83° NE 21:31:05 12° SE
Abrixas rocket 2.6 21:23:37 10° WNW 21:26:50 58° NNE 21:29:56 11° ESE
SPOT 5 3.7 21:24:13 10° SE 21:28:38 38° ENE 21:33:22 10° N
Cosmos 2173 Rocket 4.0 21:24:00 10° N 21:30:12 86° E 21:36:28 10° S
YAOGAN 6 3.0 21:27:39 10° S 21:31:16 64° W 21:34:57 10° NNW
Cosmos 1408 Rocket 3.5 21:28:13 10° S 21:32:29 68° E 21:36:48 10° NNE
Cosmos 2123 Rocket 4.3 21:27:19 10° SSE 21:33:10 47° E 21:39:06 10° NNE
NOAA 11 4.2 21:29:32 10° SSE 21:34:55 72° ENE 21:40:21 10° N
Cosmos 2221 3.6 21:31:45 10° NNW 21:35:57 46° W 21:40:09 10° SSW
Cosmos 2061 Rocket 4.1 21:30:55 10° N 21:37:21 89° E 21:43:47 10° S
Cosmos 1626 4.1 21:38:04 12° ESE 21:39:19 14° E 21:41:21 10° NE
Meteor 1-29 3.9 21:36:13 10° N 21:39:33 50° WNW 21:42:54 10° SSW
MetOp-B 4.2 21:34:38 10° SSE 21:39:51 68° ENE 21:45:11 10° N
Cosmos 1726 2.1 21:38:48 10° N 21:42:27 62° E 21:45:24 15° SSE
Cosmos 2227 4.4 21:38:18 10° SSW 21:44:02 81° WNW 21:49:47 10° NNE
Cosmos 1814 Rocket 4.1 21:42:11 10° NNW 21:47:32 69° ENE 21:51:48 16° SSE
Tiangong 1 0.7 21:44:46 10° WNW 21:47:35 82° NNE 21:49:35 17° E
Abrixas 2.1 21:49:29 10° SW 21:52:08 56° SSE 21:54:48 10° ENE
Cosmos 1763 Rocket 3.6 21:47:46 10° NNW 21:52:50 59° ENE 21:56:30 18° SE
Cosmos 841 Rocket 4.0 21:47:59 10° N 21:53:04 47° ENE 21:56:41 18° SE
Terra 3.3 21:50:32 13° ESE 21:53:26 23° ENE 21:57:06 10° NNE
Cosmos 1500 Rocket 4.1 21:50:42 16° SSE 21:53:53 40° E 21:58:04 10° NNE
Cosmos 332 Rocket 3.8 21:49:29 10° NNW 21:54:25 86° WSW 21:58:23 16° SSE
Helios 1B rocket 4.4 21:51:40 10° N 21:55:21 31° WNW 21:59:01 10° SW
Cosmos 1725 Rocket 4.0 21:49:22 10° N 21:55:37 69° E 22:00:51 15° SSE
Cosmos 1486 Rocket 4.0 21:52:47 10° S 21:57:58 62° ESE 22:03:13 10° NNE
Cosmos 1300 2.6 21:54:49 10° N 21:58:40 77° E 22:01:19 19° SSE
Cosmos 2263 Rocket 2.4 21:53:44 10° S 21:59:01 47° ESE 22:04:23 10° NE
ATLAS 5 CENTAUR R/B 4.4 21:55:34 10° W 21:59:30 25° NW 22:03:45 10° NNE
Cosmos 1802 Rocket 4.4 21:54:46 10° NNW 22:00:50 64° W 22:06:54 10° S
Cosmos 1151 Rocket 3.2 22:09:43 10° N 22:14:05 59° E 22:16:22 26° SSE
Cosmos 1328 Rocket 3.6 22:09:46 10° NNW 22:14:06 75° W 22:17:09 19° S
SL-14 R/B 3.5 22:11:30 11° SSW 22:15:22 69° W 22:19:17 10° N
SPOT 1/Viking Rocket 3.5 22:13:43 21° SSE 22:17:10 80° ENE 22:22:21 10° N
USA 234 3.2 22:14:54 10° NE 22:21:23 61° SE 22:27:49 10° SSW
Cosmos 1515 Rocket 3.5 22:18:15 10° N 22:22:36 84° W 22:25:09 24° S
Delta 2 Rocket 4.4 22:20:37 10° WSW 22:26:02 45° S 22:29:26 22° ESE
H-2A R/B 3.1 22:24:41 24° ESE 22:26:20 32° ENE 22:30:07 10° N
ERS-1 Rocket 4.4 22:22:14 10° SSW 22:26:45 33° W 22:31:18 10° NNW
Cosmos 1743 Rocket 4.0 22:23:38 11° SSW 22:27:39 61° W 22:31:57 10° N
RESURS DK-1 4.1 22:24:21 10° NW 22:27:52 26° WSW 22:30:33 14° SSW
USA 245 4.1 22:26:02 21° SSW 22:28:14 48° W 22:32:33 10° NNW
Cosmos 2058 2.8 22:26:59 27° S 22:29:13 74° E 22:33:27 10° NNE
Cosmos 1455 2.9 22:27:46 10° N 22:31:24 38° ENE 22:32:20 32° ESE
Cosmos 1844 Rocket 4.1 22:31:42 18° ESE 22:32:04 18° E 22:35:47 10° ENE
CZ-4C R/B 2.9 22:31:21 26° SE 22:32:08 28° ESE 22:36:53 10° NE
ARGOS 3.8 22:28:09 16° S 22:32:24 52° W 22:37:41 10° NNW
EO 1 Delta rocket 4.3 22:37:39 20° SSW 22:40:40 54° W 22:45:17 10° NNW
Cosmos 2228 Rocket 4.2 22:37:21 10° NNW 22:41:40 41° W 22:44:46 17° SSW
Cosmos 371 Rocket 4.5 22:38:45 10° NW 22:43:08 35° WSW 22:46:05 18° SSW
Meteor 2-12 Rocket 4.4 22:38:10 10° N 22:44:16 87° E 22:47:39 28° S
Cosmos 1503 Rocket 3.9 22:40:45 19° SSW 22:44:30 83° ESE 22:49:42 10° NNE
Cosmos 2233 Rocket 4.0 22:38:43 10° N 22:44:57 80° W 22:48:44 25° S
Cosmos 540 Rocket 3.5 22:41:05 10° NNW 22:46:13 67° ENE 22:48:19 35° SE
Cosmos 1943 3.6 22:40:55 10° NNW 22:46:26 56° WSW 22:49:30 26° S
CZ-4B R/B 4.2 22:43:39 10° NNE 22:48:29 36° E 22:49:41 32° SE
ERBS 4.2 22:49:00 10° WNW 22:51:32 20° SW 22:51:46 20° SW
Cosmos 968 Rocket 4.3 22:52:31 31° ESE 22:53:17 32° E 22:57:57 10° NE
Cosmos 1869 3.8 22:57:00 10° N 23:00:46 43° ENE 23:01:10 41° E
H-2A R/B 3.0 22:58:01 21° SSW 23:01:13 43° W 23:06:24 10° NNW
Abrixas rocket 4.1 23:00:48 10° W 23:02:33 20° WSW 23:02:33 20° WSW
CZ-2C R/B 4.3 23:00:06 10° NE 23:03:28 17° E 23:03:39 17° E
Sich 1 3.3 23:05:50 46° ESE 23:06:15 48° E 23:10:23 10° NNE
Cosmos 2151 4.4 23:04:23 15° SW 23:07:25 35° WNW 23:11:24 10° N
Lacrosse 5 3.8 23:05:44 10° W 23:08:45 16° WSW 23:10:17 14° SW
SME Rocket 3.5 23:09:38 41° ESE 23:10:27 47° ENE 23:15:06 10° N
Cosmos 1400 Rocket 4.2 23:14:10 26° E 23:14:10 26° E 23:17:17 10° NE
Cosmos 1626 3.6 23:12:41 23° SW 23:14:20 33° WNW 23:17:46 10° N
CZ-4C R/B 3.8 23:16:04 47° ESE 23:16:47 53° ENE 23:21:06 10° N
Cosmos 1513 Rocket 4.4 23:16:26 10° N 23:22:39 77° E 23:24:51 42° SSE
Tiangong 1 3.8 23:20:33 10° W 23:20:43 11° W 23:20:43 11° W
Cosmos 1707 Rocket 3.5 23:20:11 10° N 23:24:41 86° W 23:25:27 61° S
SL-19 R/B 4.4 23:19:24 10° N 23:24:47 72° WNW 23:27:46 29° SSW
deb Chang Zheng 4 3.7 23:20:57 10° N 23:25:20 71° WNW 23:26:37 44° SW
ALOS 2 4.1 23:30:03 23° E 23:30:47 24° ENE 23:34:18 10° NNE
Terra 2.7 23:29:25 31° SW 23:30:55 40° W 23:35:24 10° NNW
PSLV R/B 4.5 23:32:07 35° NW 23:32:07 35° NW 23:34:06 10° NNW
Cosmos 2278 Rocket 3.5 23:32:57 24° E 23:32:57 24° E 23:37:09 10° NE
Cosmos 1666 Rocket 3.7 23:39:27 54° SW 23:40:17 68° W 23:44:44 10° N
Cosmos 1844 3.8 23:39:56 50° SE 23:40:42 53° ESE 23:46:08 10° NNE
DELTA 2 DEB (DPAF) 4.1 23:41:10 65° SSW 23:41:42 75° WSW 23:46:11 10° NNW
Cosmos 2034 Rocket 3.9 23:36:00 10° N 23:42:21 87° W 23:44:27 46° S
Cosmos 2263 Rocket 4.1 23:38:33 10° WSW 23:43:11 26° NW 23:47:51 10° N
CZ-4 R/B 4.4 23:40:29 10° N 23:45:11 52° WNW 23:46:58 33° SW
Cosmos 1891 Rocket 4.5 23:40:22 10° NNW 23:46:24 72° W 23:48:21 44° SSW
CZ-2C R/B 3.8 23:44:55 39° ESE 23:46:33 50° ENE 23:51:58 10° N
Cosmos 1862 Rocket 3.9 23:44:48 10° N 23:49:06 52° E 23:49:13 51° E
Cosmos 1933 Rocket 3.8 23:49:53 53° E 23:49:53 53° E 23:53:58 10° NNE
Cosmos 2084 Rocket 3.5 23:47:41 10° NW 23:50:59 62° WNW 23:50:59 62° WNW
Cosmos 1633 Rocket 3.4 23:54:01 51° WSW 23:54:36 56° W 23:58:54 10° N
